This demonstration page uses our WeatherBlox Daily Observations layout. Learn more.

Left ArrowRight Arrow

39.92423, -83.80882

Hourly Observations for February 27, 2019

Temp ( °F °C ) Dew Point ( °F °C ) Humidity (%) Winds ( mph kmh ) Pressure ( in mb ) Visibility ( mi km ) Precip ( " mm )
12:56 am 00:56 Mostly Cloudy 26 -3.3 23 -5 88 88 E 12 19 30.29 1026 10 16.0934 N/A
1:56 am 01:56 Mostly Cloudy 26 -3.3 23 -5 88 88 E 9 15 30.27 1025 10 16.0934 N/A
2:56 am 02:56 Clear 26 -3.3 22 -5.6 84 84 E 10 17 30.24 1024 10 16.0934 N/A
3:56 am 03:56 Clear 25 -3.9 22 -5.6 88 88 E 12 19 30.2 1023 10 16.0934 N/A
4:56 am 04:56 Mostly Cloudy 25 -3.9 22 -5.6 88 88 E 10 17 30.2 1023 10 16.0934 N/A
5:56 am 05:56 Clear 25 -3.9 21 -6.1 85 85 E 9 15 30.2 1023 10 16.0934 N/A
6:56 am 06:56 Clear 25 -3.9 22 -5.6 88 88 E 8 13 30.19 1022 10 16.0934 N/A
7:56 am 07:56 Mostly Cloudy 26 -3.3 22 -5.6 84 84 E 8 13 30.18 1022 10 16.0934 N/A
8:56 am 08:56 Sunny 30 -1.1 24 -4.4 79 79 SE 12 19 30.17 1022 10 16.0934 N/A
9:56 am 09:56 Mostly Cloudy 34 1.1 25 -3.9 70 70 SSE 10 17 30.15 1021 10 16.0934 N/A
10:56 am 10:56 Cloudy 39 3.9 26 -3.3 60 60 S 8 13 30.11 1020 10 16.0934 N/A
11:56 am 11:56 Cloudy 44 6.7 29 -1.7 55 55 S 7 11 30.07 1018 10 16.0934 N/A
12:56 pm 12:56 Cloudy 45 7.2 30 -1.1 56 56 SSW 7 11 30.05 1018 10 16.0934 N/A
1:56 pm 13:56 Cloudy with Light Rain 47 8.3 33 0.6 59 59 SW 7 11 30.02 1017 10 16.0934 N/A
2:56 pm 14:56 Cloudy 48 8.9 34 1.1 58 58 WSW 15 24 30.01 1016 10 16.0934 N/A
3:56 pm 15:56 Cloudy 48 8.9 36 2.2 63 63 W 13 20 29.99 1016 10 16.0934 N/A
4:56 pm 16:56 Cloudy 45 7.2 34 1.1 66 66 NW 14 22 30.01 1016 10 16.0934 N/A
5:56 pm 17:56 Cloudy 44 6.7 34 1.1 68 68 NW 13 20 30.03 1017 10 16.0934 N/A
6:56 pm 18:56 Cloudy 40 4.4 32 undefined 73 73 NW 14 22 30.06 1018 10 16.0934 N/A
7:56 pm 19:56 Cloudy 37 2.8 31 -0.6 79 79 NNW 14 22 30.08 1019 10 16.0934 N/A
8:36 pm 20:36 Cloudy 36 2 30 -1 81 81 NW 14 22 30.11 1019 10 16.0934 N/A
8:56 pm 20:56 Cloudy 36 2.2 30 -1.1 79 79 NNW 14 22 30.1 1019 10 16.0934 N/A
9:56 pm 21:56 Cloudy 34 1.1 29 -1.7 82 82 NNW 12 19 30.12 1020 10 16.0934 N/A
10:56 pm 22:56 Cloudy 32 undefined 26 -3.3 79 79 NNW 12 19 30.12 1020 10 16.0934 N/A
11:56 pm 23:56 Cloudy 31 -0.6 26 -3.3 82 82 NNW 12 19 30.13 1020 10 16.0934 N/A

Powered by AerisWeather